User: anonymous   Login
Location: Fort Wayne
(41.1310°N, 85.1290°W)
Time: 19:09:43
(UTC-05:00)
Language:

Iridium 37 - Orbit

View from above orbital plane
View from above orbital plane
View from above satellite
View from above satellite

Ground track
Ground track

The orbit data is extracted from the following two-line orbital elements,

1 24968U 97056D   16342.52534627  .00000170  00000-0  53729-4 0  9994
2 24968  86.3978  39.0086 0002215  93.9387 266.2062 14.34221086  5063
Epoch (UTC): 07 December 2016 12:36:29
Eccentricity: 0.0002215
inclination: 86.3978°
perigee height: 776 km
apogee height: 779 km
right ascension of ascending node: 39.0086°
argument of perigee: 93.9387°
revolutions per day: 14.34221086
mean anomaly at epoch: 266.2062°
orbit number at epoch: 506

The dashed part of the orbit path shows where the satellite is in the earth's shadow,  

DLR